Regional Weather Roundup
Issued by NWS

Home | Current Version | Previous Version | Graphics & Text | Print | Product List | Glossary On
Versions: 1 2 3 4 5 6 7 8 9 10 11 12 13 14 15 16 17 18 19 20 21 22 23 24 25 26 27 28 29 30 31 32 33 34 35 36 37 38 39 40 41 42 43 44 45 46 47 48 49 50
000
ASUS43 KMPX 240801
RWRMN
WEATHER ROUNDUP FOR MINNESOTA
NATIONAL WEATHER SERVICE TWIN CITIES/CHANHASSEN MN
300 AM CDT MON JUL 24 2017


NOTE: "FAIR" INDICATES FEW OR NO CLOUDS BELOW 12,000 FEET WITH NO
SIGNIFICANT WEATHER AND/OR OBSTRUCTIONS TO VISIBILITY. N/A MEANS
CURRENT SKY AND/OR WEATHER CONDITIONS ARE NOT AVAILABLE.

MNZ060>063-068>070-240900-
   Twin Cities Metro

CITY           SKY/WX    TMP DP  RH WIND       PRES   REMARKS
TWIN CITIES    CLEAR     62  56  80 NE3       30.04S
ST PAUL        CLEAR     60  58  92 CALM      30.04R
CRYSTAL        CLEAR     57  53  86 N3        30.03R
BLAINE         CLEAR     59  57  94 CALM      30.04S
LAKEVILLE      CLEAR     54  54 100 CALM      30.04S
EDEN PRAIRIE   CLEAR     62  57  83 NE3       30.03S
SOUTH ST PAUL  CLEAR     62  56  82 CALM      30.04S
LAKE ELMO      FAIR      55  55 100 CALM      30.05S
$$
MNZ001>005-007-008-013>017-022>024-027-028-240900-
   Northwest Minnesota

CITY           SKY/WX    TMP DP  RH WIND       PRES   REMARKS
BEMIDJI        CLEAR     56  55  98 SE5       30.04S
HALLOCK        CLEAR     61  59  94 SE8       29.95F
ROSEAU         CLEAR     57  54  88 S3        29.99S
WARROAD        CLEAR     61  55  82 CALM      30.00S
CROOKSTON      CLEAR     61  57  88 SE7       29.99F
FOSSTON        CLEAR     54  52  94 CALM      30.02F
DETROIT LAKES  CLEAR     63  59  88 SE6       30.04S
MOORHEAD       CLEAR     63  59  88 SE5       29.99F
PARK RAPIDS    PTCLDY    61  57  87 SE7       30.04S
MAHNOMEN       FAIR      60  57  89 SE6       30.02S
$$
MNZ006-009>011-018-025>026-240900-
   North Central Minnesota

CITY           SKY/WX    TMP DP  RH WIND       PRES   REMARKS
BAUDETTE       PTCLDY    59  56  89 SW6       30.00F
FLAG ISLAND    CLEAR     66  63  88 SW3       29.97S FOG
INTL FALLS     CLEAR     54  52  93 CALM      30.03S
WASKISH        CLEAR     55  54  94 CALM      30.03S
BIG FORK       MOCLDY    52  52 100 CALM      30.06R FOG
LONGVILLE      CLEAR     54  54 100 CALM      30.05F
GRAND RAPIDS   CLEAR     53  53 100 CALM      30.08S FOG
CRANE LAKE     CLEAR     52  52 100 CALM      30.06S
ORR            CLEAR     55  52  88 CALM      30.03S
COOK           CLEAR     52  52 100 CALM      30.06S
WALKER         FAIR      60  58  95 CALM      30.05R
$$
MNZ012-019>021-037-240900-
   Northeast Minnesota

CITY           SKY/WX    TMP DP  RH WIND       PRES   REMARKS
DULUTH         FOG       53  53 100 CALM      30.06S VSB 1/4
ELY            CLEAR     48  48 100 CALM      30.06S
HIBBING        FOG       47  47 100 CALM      30.06S VSB 1/2
EVELETH        FOG       47  45  91 CALM      30.07F VSB 1/2
DULUTH HARBOR  CLOUDY    59  57  94 CALM      30.07S
TWO HARBORS    CLEAR     48  45  87 CALM      30.04S
SILVER BAY     CLEAR     45  45 100 CALM      30.04S
GRAND MARAIS     N/A     51  50  96 CALM      30.04S
G MARAIS ARPRT CLEAR     45  41  87 CALM      30.08S
$$
MNZ029>031-032-039>041-046>048-054>057-064-240900-
   West Central Minnesota

CITY           SKY/WX    TMP DP  RH WIND       PRES   REMARKS
FERGUS FALLS   CLEAR     64  63  94 SE5       30.01S
WHEATON        CLEAR     55  54  94 E6        30.03S
MORRIS         CLEAR     59  57  94 SE5       30.02S
ALEXANDRIA     CLOUDY    62  59  90 SE6       30.05S
ELBOW LAKE     FAIR      62  60  93 SE7       30.03S
WADENA         PTCLDY    59  57  94 CALM      30.04S
GLENWOOD       CLEAR     57  57 100 SE5       30.05S
APPLETON       CLEAR     63  57  82 SE6       30.02R
BENSON         CLEAR     63  57  82 CALM      30.04F
ORTONVILLE     CLEAR     61  57  88 SE3       30.01S
MADISON        CLEAR     59  59 100 SE3       30.02S
WILLMAR        FAIR      63  59  88 E5        30.05S
$$
MNZ033>034-036-042>043-049>051-058-059-240900-
   Central Minnesota

CITY           SKY/WX    TMP DP  RH WIND       PRES   REMARKS
ST CLOUD       CLEAR     53  53 100 CALM      30.04S FOG
SAUK CENTRE    FAIR      55  55  98 CALM      30.05S FOG
PAYNESVILLE    CLEAR     57  56  96 CALM      30.05S
AITKIN         FOG       48  46  93 CALM      30.05S VSB 1/4
PINE RIVER     FOG       54  54 100 CALM      30.08F VSB 1
BRAINERD       CLEAR     53  53 100 CALM      30.06R
STAPLES        CLEAR     55  55 100 CALM      30.05S
LONG PRAIRIE   FAIR      57  55  94 CALM      30.05S
LITTLE FALLS   CLEAR     52  52 100 CALM      30.05F FOG
LITCHFIELD     CLEAR     61  59  94 CALM      30.05S
BUFFALO        CLEAR     55  53  91 CALM      30.05S
MAPLE LAKE     FOG       56  55  99 CALM      30.05S VSB 1/2
HUTCHINSON     CLEAR     57  56  97 CALM      30.05S
$$
MNZ037-044-045-052-053-240900-
   East Central Minnesota

CITY           SKY/WX    TMP DP  RH WIND       PRES   REMARKS
PRINCETON      FOG       54  52  94 CALM      30.05S VSB 3/4
MORA             N/A     54  52  94 CALM      30.07S FOG
CAMBRIDGE      CLEAR     57  52  82 CALM      30.04R
RUSH CITY      MOCLDY    52  51  94 CALM      30.06R FOG
MOOSE LAKE     FOG       55  54  94 CALM      30.04S VSB 1/2
HINCKLEY       FAIR      52  52 100 CALM      30.06R FOG
CLOQUET        FOG       55  54  94 CALM      30.06F VSB 1
MCGREGOR       CLEAR     50  48  93 CALM      30.07R
$$
MNZ071>073-080-081-089-090-097-098-240900-
   Southwest Minnesota

CITY           SKY/WX    TMP DP  RH WIND       PRES   REMARKS
MONTEVIDEO     CLEAR     59  55  88 S5        30.03S
GRANITE FALLS  CLEAR     63  60  90 E3        30.04S
CANBY          PTCLDY    58  56  92 CALM      30.04S
MARSHALL       CLEAR     61  58  90 CALM      30.03S
REDWOOD FALLS  CLEAR     62  58  86 E6        30.03S
OLIVIA         CLEAR     61  55  82 E6        30.03S
PIPESTONE      CLEAR     61  55  82 CALM      30.03F
WINDOM         CLEAR     61  57  88 E3        30.04S
WORTHINGTON    CLEAR     57  56  96 CALM      30.04F
JACKSON        CLEAR     59  59 100 CALM      30.04F
SLAYTON        HVY RAIN  56  48  72 NW3       30.05S
$$
MNZ065>067-074>077-082>085-091>093-240900-
   South Central Minnesota

CITY           SKY/WX    TMP DP  RH WIND       PRES   REMARKS
MANKATO        CLEAR     61  58  90 E3        30.04
NEW ULM        CLEAR     61  55  82 CALM      30.04R
ST JAMES       CLEAR     61  57  88 CALM      30.05S
FAIRMONT       CLEAR     60  58  92 E3        30.03F
GLENCOE        CLEAR     58  59 100 CALM      30.03S
FARIBAULT      CLEAR     57  57 100 CALM      30.04S
OWATONNA       PTCLDY    59  57  94 CALM      30.04S
WASECA         CLEAR     55  54  94 NE3       30.05S
ALBERT LEA     CLEAR     57  55  94 CALM      30.03S
$$
MNZ078>079-086>088-094>096-240900-
   Southeast Minnesota

CITY           SKY/WX    TMP DP  RH WIND       PRES   REMARKS
ROCHESTER      CLEAR     59  57  93 N7        30.03S
RED WING       CLOUDY    63  57  82 CALM      30.02S
STANTON        CLEAR     57  55  94 CALM      30.03R
DODGE CENTER   CLEAR     57  55  94 NW5       30.04R
WINONA         PTCLDY    63  59  88 CALM      30.01S
AUSTIN         CLEAR     57  55  94 CALM      30.03S
PRESTON        CLEAR     57  55  94 N3        30.03R
$$
ABBREVIATIONS USED IN REMARKS
   TC - TEMPERATURES IN CELSIUS
  WCI - WIND CHILL INDEX
   HX - HEAT INDEX
  VSB - VISIBILITY
$$




USA.gov is the U.S. government's official web portal to all federal, state and local government web resources and services.